TimeNZST,TemperatureF,Dew PointF,Humidity,Sea Level PressureIn,VisibilityMPH,Wind Direction,Wind SpeedMPH,Gust SpeedMPH,PrecipitationIn,Events,Conditions,WindDirDegrees,DateUTC
12:00 AM,51.8,50.0,94,29.68,6.2,WSW,12.7,-,N/A,,Light Drizzle,240,2013-05-17 12:00:00
1:00 AM,51.8,50.0,94,29.68,6.2,WSW,12.7,-,N/A,,Light Drizzle,240,2013-05-17 13:00:00
2:00 AM,51.8,50.0,94,29.68,6.2,WSW,11.5,-,N/A,Rain,Rain,240,2013-05-17 14:00:00
3:00 AM,51.8,50.0,94,29.65,6.2,WSW,9.2,-,N/A,Rain,Rain,240,2013-05-17 15:00:00
4:00 AM,51.8,50.0,94,29.65,6.2,WSW,11.5,-,N/A,Rain,Rain,250,2013-05-17 16:00:00
5:00 AM,51.8,50.0,94,29.62,6.2,WSW,11.5,-,N/A,Rain,Rain,240,2013-05-17 17:00:00
6:00 AM,51.8,51.8,100,29.62,6.2,WSW,9.2,-,N/A,Rain,Rain,250,2013-05-17 18:00:00
7:00 AM,51.8,51.8,100,29.59,6.2,WSW,11.5,-,N/A,,Mostly Cloudy,240,2013-05-17 19:00:00
8:00 AM,51.8,50.0,94,29.59,6.2,West,9.2,-,N/A,Rain,Rain,260,2013-05-17 20:00:00
9:00 AM,51.8,50.0,94,29.62,6.2,West,9.2,-,N/A,Rain,Light Rain,260,2013-05-17 21:00:00
10:00 AM,51.8,51.8,100,29.59,6.2,West,10.4,-,N/A,Rain,Light Rain,260,2013-05-17 22:00:00
11:00 AM,53.6,51.8,94,29.59,6.2,West,10.4,-,N/A,Rain,Light Rain,260,2013-05-17 23:00:00
12:00 PM,53.6,51.8,94,29.56,6.2,WSW,12.7,-,N/A,Rain,Light Rain,250,2013-05-18 00:00:00
1:00 PM,53.6,51.8,94,29.53,6.2,WSW,10.4,-,N/A,Rain,Light Rain Showers,250,2013-05-18 01:00:00
2:00 PM,55.4,51.8,88,29.53,6.2,WSW,15.0,-,N/A,,Mostly Cloudy,240,2013-05-18 02:00:00
3:00 PM,53.6,51.8,94,29.50,6.2,WSW,15.0,-,N/A,,Mostly Cloudy,240,2013-05-18 03:00:00
4:00 PM,55.4,51.8,88,29.50,6.2,WSW,13.8,-,N/A,,Mostly Cloudy,240,2013-05-18 04:00:00
5:00 PM,53.6,50.0,88,29.50,6.2,WSW,15.0,-,N/A,,Mostly Cloudy,240,2013-05-18 05:00:00
6:00 PM,53.6,50.0,88,29.50,6.2,WSW,11.5,-,N/A,,Light Drizzle,240,2013-05-18 06:00:00
7:00 PM,53.6,50.0,88,29.50,6.2,WSW,11.5,-,N/A,,Light Drizzle,240,2013-05-18 07:00:00
8:00 PM,51.8,50.0,94,29.50,6.2,WSW,10.4,-,N/A,,Light Drizzle,250,2013-05-18 08:00:00
9:00 PM,51.8,50.0,94,29.50,2.5,WSW,8.1,-,N/A,Rain,Light Rain,250,2013-05-18 09:00:00
10:00 PM,51.8,50.0,94,29.50,2.5,WSW,8.1,-,N/A,Rain,Light Rain,250,2013-05-18 10:00:00
11:00 PM,51.8,50.0,94,29.50,3.7,WSW,8.1,-,N/A,Rain,Light Rain,250,2013-05-18 11:00:00